Regional Weather Roundup
Issued by NWS

Home | Current Version | Previous Version | Graphics & Text | Print | Product List | Glossary On
Versions: 1 2 3 4 5 6 7 8 9 10 11 12 13 14 15 16 17 18 19 20 21 22 23 24 25 26 27 28 29 30 31 32 33 34 35 36 37 38 39 40 41 42 43 44 45 46 47 48 49 50
000
ASUS43 KLOT 170710
RWRIL

ILLINOIS REGIONAL WEATHER ROUNDUP
NATIONAL WEATHER SERVICE CHICAGO/ROMEOVILLE IL
200 AM CDT THU APR 17 2014

NOTE: "FAIR" INDICATES FEW OR NO CLOUDS BELOW 12,000 FEET WITH NO
SIGNIFICANT WEATHER AND/OR OBSTRUCTIONS TO VISIBILITY.

* THESE STATIONS ARE NOT UNDER NWS QUALITY CONTROL. THEY ALSO MAY NOT
  REPORT WEATHER SUCH AS PRECIPITATION OR FOG.

ILZ001-002-007-009-015-016-024-170800-
NORTHWEST ILLINOIS

CITY           SKY/WX    TMP DP  RH WIND       PRES   REMARKS
MOLINE         MOCLDY    47  27  45 S16G28    29.99F
STERLING*      CLOUDY    45  30  57 S8G17     30.05S
SAVANNA*       CLOUDY    45  30  56 SE14G22   30.01S
$$

ILZ003-004-008-010-011-017-018-170800-
NORTH CENTRAL ILLINOIS

CITY           SKY/WX    TMP DP  RH WIND       PRES   REMARKS
ROCKFORD       CLOUDY    42  28  57 SE21G28   30.09F
FREEPORT*      CLOUDY    45  32  59 S23G29    30.05F
ROCHELLE*      CLOUDY    40  30  66 SE17G23   30.07F
DE KALB*       CLOUDY    39  28  63 SE16      30.11S WCI  30
PERU*          CLOUDY    42  30  62 SE14      30.10S
$$

ILZ005-006-012>014-019>023-170800-
NORTHEAST ILLINOIS

CITY           SKY/WX    TMP DP  RH WIND       PRES   REMARKS
CHICAGO-OHARE  MOCLDY    42  23  46 SE13      30.14F
CHICAGO-MIDWAY CLOUDY    44  25  47 SE14G21   30.15F
AURORA         MOCLDY    39  27  62 SE12      30.13F WCI  32
LANSING*       MOCLDY    41  25  52 SE13      30.17F
WAUKEGAN       MOCLDY    40  29  64 SE14G23   30.14F
DUPAGE AIRPORT MOCLDY    42  25  50 S13       30.12F
KANKAKEE*      MOCLDY    39  28  66 SE10      30.16F WCI  32
WHEELING       MOCLDY    43  25  49 S13       30.16S
MORRIS*        CLOUDY    43  24  48 S14       30.13S
ROMEOVILLE*    MOCLDY    40  26  57 S15       30.14F
NORTHERLY ISL    N/A     43  27  53 S16         N/A
$$

LMZ740>746-170800-
SOUTHERN LAKE MICHIGAN

STATION/POSITION SKY/WX   TEMP    WIND        PRES    VSBY  WAVE
                          AIR SEA DIR/SP/G                  HT/PER
                          (F)     (DEG/KT/KT) (MB)    (MI)  (FT/S)
WAUKEGAN HARBOR            40     150/ 19/ 23 1021.7F
HARRISON CRIB              43     150/ 19/ 24   N/A
BURNHAM HARBOR             43     150/ 14/ 17   N/A
CALUMET HARBOR             43     140/ 13/ 19 1022.1F
MICHIGAN CITY              42     120/ 13/ 17   N/A
$$

ILZ025>027-034>036-040-047-049-050-058-095>099-170800-
WEST-CENTRAL ILLINOIS

CITY           SKY/WX    TMP DP  RH WIND       PRES   REMARKS
QUINCY         PTCLDY    48  26  42 S15G24    30.06S
GALESBURG*     PTCLDY    43  32  64 S10G16    30.04S
MACOMB*        PTCLDY    45  30  55 S16G24    30.08S
JACKSONVILLE*  PTCLDY    47  30  53 S12       30.12S
PITTSFIELD*    PTCLDY    49  28  45 S13G18    30.11S
$$

ILZ028>032-037-038-041>044-048-051>054-059>061-170800-
CENTRAL ILLINOIS

CITY           SKY/WX    TMP DP  RH WIND       PRES   REMARKS
PONTIAC        CLOUDY    41  30  65 SE13      30.13S
BLOOMINGTON    CLOUDY    38  28  67 S16       30.14R WCI  29
DECATUR        PTCLDY    43  29  57 S10       30.16S
PEORIA         MOCLDY    45  30  55 S14       30.10S
LACON*         CLOUDY    46  29  52 S16G24    30.09S
LINCOLN*       MOCLDY    41  32  70 S5        30.14F
SPRINGFIELD    PTCLDY    47  29  49 S15       30.14R
TAYLORVILLE    PTCLDY    39  32  75 S9        30.15S WCI  33
$$

ILZ033-039-045-046-055>057-062-063-170800-
EAST-CENTRAL ILLINOIS

CITY           SKY/WX    TMP DP  RH WIND       PRES   REMARKS
CHAMPAIGN      CLEAR     34  28  79 SE9       30.17S WCI  27
RANTOUL*       CLEAR     38  29  70 CALM      30.17F
MATTOON        CLEAR     41  28  60 SE9       30.17F
PARIS*         CLEAR     38  29  70 SE7       30.20S WCI  33
$$

ILZ079-100>102-170800-
SOUTHWEST ILLINOIS

CITY           SKY/WX    TMP DP  RH WIND       PRES   REMARKS
ALTON          CLEAR     39  29  66 SE3       30.15S
BELLEVILLE     CLEAR     39  33  77 S5        30.16S
CAHOKIA*       CLEAR     43  31  62 SE5       30.16R
SPARTA*        CLEAR     37  32  81 SE3       30.18S
$$

ILZ064>066-069>071-074>076-080>082-084>086-088>090-092>094-170800-
SOUTH-CENTRAL ILLINOIS

CITY           SKY/WX    TMP DP  RH WIND       PRES   REMARKS
CARBONDALE     CLEAR     41  32  70 CALM      30.18F
CAIRO*         CLEAR     43  35  74 CALM      30.18S
MARION         CLEAR     39  34  81 CALM      30.18F
MT. VERNON     PTCLDY    34  23  64 CALM      30.19S
CENTRALIA*       N/A     36  31  82 CALM      30.18S
SALEM*         CLEAR     39  33  80 SE3       30.18S
METROPOLIS*    CLEAR     44  32  63 SE3       30.18S
$$

ILZ067-068-072-073-078-083-087-091-170800-
SOUTHEAST ILLINOIS

CITY           SKY/WX    TMP DP  RH WIND       PRES   REMARKS
FAIRFIELD*     CLEAR     45  32  61 CALM      30.19S
HARRISBURG*    CLEAR     40  33  77 CALM      30.20S
ROBINSON*      CLEAR     40  31  70 SE3       30.22S
CARMI*         CLEAR     42  36  78 CALM      30.19S
$$

ABBREVIATIONS USED IN REMARKS
   TC - TEMPERATURE IN CELSIUS
  WCI - WIND CHILL INDEX
   HX - HEAT INDEX
  VSB - VISIBILITY
$$




USA.gov is the U.S. government's official web portal to all federal, state and local government web resources and services.